Regional Weather Roundup
Issued by NWS State College, PA

Home | Current Version | Previous Version | Graphics & Text | Print | Product List | Glossary Off
Versions: 1 2 3 4 5 6 7 8 9 10 11 12 13 14 15 16 17 18 19 20 21 22 23 24 25 26 27 28 29 30 31 32 33 34 35 36 37 38 39 40 41 42 43 44 45 46 47 48 49 50

000
ASUS41 KCTP 280003
RWRCTP

REGIONAL WEATHER ROUNDUP
NATIONAL WEATHER SERVICE STATE COLLEGE PA
800 PM EDT FRI MAR 27 2015

Note: "fair" indicates few or no clouds below 12,000 feet with no
significant weather and/or obstructions to visibility.

* = STATION THAT DOES NOT REPORT PRECIPITATION /E.G. RAIN...SNOW...ETC/
    THUNDER OR FOG.

PAZ002>004-007>009-013>016-020>023-029>032-280100-
WESTERN PENNSYLVANIA

CITY           SKY/WX    TMP DP  RH WIND       PRES   REMARKS
ERIE           CLOUDY    23  13  65 NW14      30.00R WCI  11
MEADVILLE      LGT SNOW  20  13  74 NW7G18    29.94R WCI  11
FRANKLIN*      CLOUDY    21  14  73 NW9       29.93R WCI  11
NEW CASTLE     LGT SNOW  23  18  81 N12       29.97R WCI  12
BEAVER COUNTY  LGT SNOW  25  19  80 N10G18    29.93R WCI  15
BUTLER*        CLOUDY    25  18  74 N12G17    29.93R WCI  14
PITTSBURGH INT CLOUDY    28  17  63 NW13      29.91S
PITTSBURGH     CLOUDY    27  15  61 NW12      29.90R
INDIANA*       CLOUDY    30  18  59 NW10G18   29.91R
LATROBE        NOT AVBL
WASHINGTON CO* MOCLDY    28  19  69 NW9G16    29.93S
$$

PAZ004>006-010>012-017>019-024>028-033>037-041-042-045-046-049>053-280100-
CENTRAL PENNSYLVANIA

CITY           SKY/WX    TMP DP  RH WIND       PRES   REMARKS
BRADFORD       CLOUDY    24  17  74 NW10      29.82R WCI  14
DUBOIS         CLOUDY    27  16  63 NW12      29.84R
CLEARFIELD     CLOUDY    29  18  63 NW15      29.84R
JOHNSTOWN      LGT SNOW  26  20  77 NW16      29.79R WCI  14
ALTOONA        CLOUDY    32  22  66 NW14      29.83R
STATE COLLEGE  CLEAR     32  19  59 NW9       29.82R
WILLIAMSPORT   CLOUDY    39  23  52 NW7       29.81R
SELINSGROVE    CLOUDY    41  27  57 NW3       29.80R
FT INDIANTOWN  CLOUDY    43  21  42 NE2       29.79R
CAPITAL CITY   MOCLDY    42  22  44 NW8       29.80R
HARRISBURG     MOCLDY    43  23  45 NW10      29.79R
YORK           CLOUDY    42  24  49 NW8       29.79R
$$

PAZ038>040-043-044-047-048-054-055-060>062-067>071-280100-
EASTERN PENNSYLVANIA

CITY           SKY/WX    TMP DP  RH WIND       PRES   REMARKS
SCRANTON       CLOUDY    37  24  59 N8        29.78R
MOUNT POCONO   PTCLDY    32  21  64 NW6       29.72R
ALLENTOWN      MOCLDY    40  24  53 N6        29.78R
QUAKERTOWN*    CLOUDY    41  25  52 N5        29.77S
READING        CLOUDY    42  22  44 N9        29.78R
LANCASTER      MOCLDY    41  23  48 NW8       29.79R
COATESVILLE    PTCLDY    41  25  52 N6        29.78R
POTTSTOWN      CLOUDY    42  25  50 N3        29.79R
BLUE BELL      CLOUDY    43  28  56 CALM      29.76F
DOYLESTOWN     MOCLDY    39  25  57 NW3       29.76R
WILLOW GROVE   NOT AVBL
NORTH PHILA    CLOUDY    45  25  45 N10       29.79R
PHILADELPHIA   CLOUDY    45  26  47 N9        29.78R
$$


USA.gov is the U.S. government's official web portal to all federal, state and local government web resources and services.